Theta_e
318 318 318 318 319 319 319 319 320 320 321 321 322 322 322 322 322 322 323 323 323 324 324 324 325 325 325 326 326 326 323 309 312 309 307 308 320 332 332 336 334 335 332 307 306 306 303 302 305 302 303 301 303 301 303 305 302 295 292 286 287 285 289 290 291 293 295 294 293 293 295 296 292 294 297 298 298 295 295 295 296 296 298 299 300 305 307 310
317 318 318 318 318 318 319 319 319 320 320 320 321 321 322 321 321 321 322 323 322 323 324 324 324 325 325 325 326 326 317 311 308 309 310 321 336 340 337 338 335 335 322 307 303 302 301 302 301 301 301 300 304 302 305 303 303 294 290 288 286 286 290 293 294 294 294 293 294 294 292 295 296 296 296 297 293 292 294 296 296 296 296 299 299 303 308 311
317 317 317 317 318 318 318 319 319 319 320 320 320 321 321 321 321 321 321 322 322 323 323 324 324 325 325 325 325 324 315 310 307 304 310 336 338 339 339 337 334 331 309 307 302 302 302 302 301 301 299 298 297 300 301 300 303 296 292 288 287 291 293 294 296 297 295 295 295 295 296 295 297 296 297 297 293 292 294 296 297 296 298 296 297 303 308 309
317 317 317 317 318 318 318 318 318 319 319 320 320 321 321 321 321 321 321 321 322 322 322 323 324 324 324 324 326 318 314 301 301 305 312 333 339 340 339 336 334 326 310 307 303 303 301 301 299 301 299 298 294 301 300 300 298 296 294 289 291 292 294 295 295 295 295 296 296 295 294 294 296 295 297 296 294 295 295 296 297 298 300 299 296 296 305 307
317 317 317 317 318 318 318 318 318 319 319 320 321 321 321 321 320 320 321 321 321 322 322 323 323 324 324 324 324 314 304 293 301 308 316 337 335 338 338 337 333 314 309 308 305 303 302 300 299 299 298 294 294 295 296 298 298 297 295 294 294 294 295 297 297 296 295 294 294 292 293 296 296 297 296 295 294 295 297 298 297 299 300 299 298 297 302 305
317 317 317 317 318 318 318 318 318 319 319 320 321 321 321 320 320 320 320 321 321 322 322 322 323 323 324 324 314 310 300 289 302 308 333 334 338 337 337 334 327 310 311 305 304 302 303 300 298 297 294 294 293 292 291 297 301 295 293 295 295 296 296 296 296 296 293 294 293 293 295 296 296 296 296 296 296 299 301 299 299 299 300 301 298 298 298 299
318 317 317 317 317 317 317 318 318 319 320 320 320 320 321 321 321 321 321 321 321 321 321 322 322 322 323 322 311 303 299 297 303 312 330 337 338 335 334 331 321 308 307 306 302 303 299 298 297 294 293 294 291 292 293 297 299 297 294 292 296 296 296 297 297 295 292 293 294 296 293 293 294 294 295 295 299 300 301 300 299 300 300 299 297 297 298 299
318 317 317 317 317 317 317 318 318 319 319 320 320 320 321 321 321 321 321 321 321 321 322 321 321 321 321 311 311 300 301 302 304 318 331 335 328 325 319 310 310 307 306 303 300 300 299 297 296 296 294 292 292 294 294 295 295 295 294 291 294 294 295 294 292 293 294 294 294 293 293 295 294 295 295 297 299 301 301 300 298 299 298 297 296 297 297 296
320 317 317 317 317 317 317 317 318 319 319 319 320 320 321 321 321 321 321 321 321 321 321 321 321 321 321 312 301 299 299 306 312 322 325 321 320 313 309 308 309 307 305 302 302 301 301 297 297 296 293 294 294 296 293 294 289 292 293 293 293 293 293 293 293 294 294 296 296 294 295 296 295 294 294 298 300 301 300 296 296 295 295 296 296 295 295 296
320 318 317 317 317 317 317 317 318 318 319 320 320 320 320 321 321 321 321 321 320 320 320 320 320 320 310 305 300 297 305 312 322 326 321 319 318 314 311 308 308 305 305 304 301 302 300 298 301 300 297 297 296 295 294 293 290 294 293 293 293 294 292 293 294 297 295 294 295 294 294 294 293 295 291 293 298 299 296 296 295 295 295 295 295 296 297 298
320 319 318 318 318 317 317 317 317 317 318 320 320 320 321 321 321 321 320 320 320 320 320 320 321 316 307 308 299 296 308 317 317 322 319 316 313 310 312 309 307 306 304 303 303 302 302 300 302 302 302 296 296 293 294 295 295 294 294 292 293 292 293 293 293 294 294 295 292 293 292 293 291 294 293 298 300 297 295 296 296 295 294 294 295 297 298 298
319 318 318 318 318 317 317 318 318 318 319 320 320 320 320 321 321 320 320 320 320 320 320 320 320 313 309 304 299 299 309 312 318 320 317 312 310 310 311 309 307 307 305 303 304 305 305 304 302 301 295 300 293 295 294 295 296 295 293 291 291 291 292 294 293 294 294 292 292 292 292 290 291 290 296 298 298 296 295 295 294 293 293 293 296 297 297 297
319 318 318 319 317 317 318 318 318 318 319 319 320 320 321 321 321 320 320 320 320 319 319 320 318 311 304 295 299 307 308 310 313 314 313 310 309 309 308 307 307 306 307 303 303 305 304 302 301 299 299 296 293 293 295 296 295 294 292 291 290 289 289 294 294 293 293 292 291 293 285 285 289 293 296 297 296 294 294 294 292 293 293 294 296 296 296 296
319 319 318 318 318 317 318 318 317 318 319 320 321 321 321 321 321 320 320 319 320 319 320 321 311 309 300 293 303 309 309 312 313 313 311 312 310 308 309 309 306 304 306 303 304 302 305 301 301 301 300 298 296 300 295 291 291 291 289 290 287 285 284 291 293 292 292 293 291 294 286 284 289 293 295 295 294 293 293 292 292 293 295 296 295 295 294 295
320 319 319 319 319 318 318 317 318 319 320 321 321 321 321 320 321 320 320 319 321 320 319 319 308 301 295 297 306 308 323 312 312 310 311 309 307 306 308 307 305 302 303 303 305 304 303 304 302 299 297 297 297 294 287 287 286 287 288 283 282 285 285 290 294 293 292 292 290 292 285 287 291 293 295 295 294 293 292 292 292 295 295 295 294 294 293 294
319 320 320 319 319 318 318 318 319 320 321 321 321 321 321 321 321 319 321 318 318 320 313 308 309 302 295 293 303 317 308 305 306 309 307 311 306 307 306 304 305 302 303 303 303 301 300 300 298 294 296 296 292 283 284 285 285 284 287 282 283 283 284 288 292 293 294 292 293 291 287 286 290 290 292 294 292 292 291 291 292 294 294 294 293 293 292 293
319 319 319 318 318 318 319 319 319 320 321 321 322 321 321 322 321 320 320 320 316 315 312 307 309 305 294 302 308 303 302 304 308 309 307 307 309 306 303 302 303 302 300 300 300 301 298 299 296 295 293 290 287 286 284 281 282 282 284 284 284 285 285 285 290 293 291 291 290 290 288 288 291 291 294 295 294 292 293 290 293 294 293 293 292 292 292 291
319 319 318 318 318 319 320 320 320 321 321 322 321 320 318 321 321 320 317 315 313 311 309 313 306 299 296 302 298 299 305 304 307 307 305 305 304 302 300 300 298 297 298 297 298 297 297 295 292 289 288 289 289 286 283 281 285 283 283 283 286 285 284 287 287 289 293 291 291 288 287 288 290 292 293 294 293 292 291 291 293 293 292 292 292 291 291 291
319 318 318 319 319 320 320 320 321 321 322 322 321 321 321 320 313 310 312 312 306 300 296 296 296 292 291 298 301 304 306 307 307 305 304 306 305 302 301 300 299 297 295 293 293 295 292 291 290 287 286 286 287 288 288 289 288 288 288 287 285 285 285 287 289 290 292 290 290 288 290 291 290 291 293 294 293 292 291 292 293 292 291 291 291 291 291 291
319 318 318 319 320 321 321 321 322 322 323 320 317 314 308 304 301 302 303 306 303 300 300 299 301 298 300 300 302 305 307 307 302 304 306 305 304 303 300 299 297 294 292 291 292 293 293 287 285 285 288 289 291 290 291 292 290 289 288 287 286 285 286 287 289 293 292 290 287 289 287 286 289 291 292 293 291 292 290 291 291 291 291 290 290 290 290 290
319 319 320 320 320 321 321 322 322 322 321 319 315 309 302 299 297 296 298 301 304 304 302 300 301 301 301 303 302 302 301 302 302 303 305 308 301 301 297 297 293 292 291 291 292 294 294 287 286 289 291 291 292 292 290 289 289 288 287 284 285 284 285 288 290 290 291 290 285 284 287 289 290 291 291 292 292 290 290 290 290 290 290 290 289 289 289 290
319 320 320 321 321 321 321 322 322 322 322 318 312 305 303 302 304 304 302 298 302 304 304 305 304 302 306 303 302 303 304 300 300 302 306 305 300 297 295 294 289 290 290 290 290 289 287 286 290 292 293 292 291 291 289 288 288 287 286 285 284 286 286 289 290 290 290 291 287 283 287 288 290 289 291 290 290 290 291 290 290 289 289 289 289 289 289 289
320 320 320 321 320 321 322 322 321 322 317 311 306 304 302 305 304 304 303 296 297 302 303 302 302 303 304 302 302 304 301 300 299 300 302 304 298 297 294 292 290 290 290 291 289 285 285 286 291 293 291 290 290 290 289 289 289 286 286 284 285 286 286 283 286 287 289 289 286 286 285 287 288 290 290 290 290 289 290 290 289 290 288 288 288 288 288 288
319 320 320 320 321 321 322 322 322 317 312 307 305 305 307 305 304 305 300 295 295 300 302 302 303 302 302 304 304 303 301 300 300 299 303 300 297 295 294 293 291 290 290 290 291 289 290 291 293 292 290 290 289 290 288 287 286 285 287 286 286 286 285 286 285 287 287 287 287 285 284 284 287 287 287 289 290 289 289 289 289 289 289 289 289 288 288 287
320 320 320 321 320 321 321 321 314 311 307 306 306 307 305 304 303 304 300 295 293 295 304 303 303 301 301 304 302 301 299 298 299 299 302 300 296 295 294 294 291 289 290 290 289 288 288 292 294 290 289 289 289 288 288 288 285 284 285 289 289 288 287 286 286 286 282 283 283 285 278 276 280 284 286 287 287 287 288 287 287 287 288 287 287 287 287 287
320 320 320 320 321 321 322 313 308 309 310 306 307 307 304 303 302 303 296 288 287 292 299 296 304 299 304 298 299 298 300 295 299 298 303 300 302 297 295 293 293 289 290 289 289 287 290 293 293 292 289 287 287 287 286 289 284 285 287 288 289 287 286 284 285 284 278 279 284 285 281 275 280 285 286 286 285 285 286 285 286 286 286 286 285 286 285 285
321 320 320 320 321 321 315 308 311 311 307 308 309 307 305 305 305 304 297 287 284 293 295 300 299 298 302 297 298 299 291 290 298 297 298 301 299 300 293 290 292 292 292 290 288 287 290 290 290 290 290 288 286 286 287 290 286 284 285 286 286 286 285 284 283 285 281 281 282 284 283 277 276 284 287 286 285 284 284 285 285 285 285 285 285 284 284 284
321 320 320 321 321 320 314 312 311 309 308 309 308 305 305 304 304 302 292 282 281 296 293 295 298 303 299 296 297 293 292 296 292 295 297 298 298 295 294 288 291 291 291 288 284 287 290 288 288 288 288 286 287 289 288 290 288 285 286 285 285 286 284 284 285 281 281 282 278 278 282 280 276 281 285 286 284 283 283 283 284 284 284 284 284 284 284 284
320 320 319 320 321 321 320 317 312 308 309 306 307 306 307 305 302 294 286 280 293 291 303 293 304 298 294 296 293 291 293 292 290 294 297 298 299 294 291 290 289 289 289 290 287 285 291 292 289 290 287 288 288 285 288 291 288 288 286 286 285 284 284 283 281 283 280 279 275 280 282 277 278 280 282 285 285 283 283 283 284 284 283 283 283 283 283 283
320 320 320 320 320 318 317 317 314 313 308 306 306 306 306 305 300 292 285 281 296 289 294 295 294 291 291 290 290 291 291 290 292 294 294 293 294 295 294 294 290 289 290 285 288 288 290 292 292 290 289 289 286 287 287 290 289 287 286 284 283 281 280 280 279 277 277 273 278 282 282 283 277 281 283 283 284 284 284 283 283 283 282 282 282 282 282 282
320 320 319 319 316 317 317 311 317 310 309 308 309 309 307 303 293 287 283 290 293 293 293 292 290 292 289 288 287 289 289 290 292 292 291 293 292 291 291 290 289 283 282 281 284 285 288 289 290 288 292 290 289 288 286 285 286 286 285 282 283 282 278 276 273 276 273 271 276 278 282 282 275 277 281 283 284 285 286 283 282 282 282 282 282 282 282 282
320 320 319 318 319 320 314 312 315 311 310 310 312 310 303 291 294 285 286 298 289 290 288 287 290 288 288 290 286 287 286 290 290 290 287 286 286 287 286 284 285 279 279 280 282 282 285 287 287 289 292 291 287 287 285 285 285 284 282 281 276 274 273 272 273 273 272 274 279 278 281 280 281 282 282 282 283 283 285 285 284 282 282 282 282 282 283 282
318 319 318 319 318 317 317 311 311 311 310 312 310 306 297 287 282 290 288 291 286 291 290 290 288 289 288 289 289 288 289 286 289 289 288 287 286 287 286 286 285 286 282 280 282 280 282 282 286 288 290 290 289 286 282 283 283 283 283 279 274 272 272 268 269 268 270 275 278 281 282 280 280 282 281 281 283 283 284 284 284 283 282 282 282 282 282 281
316 317 316 315 318 318 313 311 311 311 312 311 306 299 293 285 285 296 294 290 291 294 294 291 290 289 289 287 287 289 287 289 288 288 290 286 286 284 287 288 288 289 287 281 282 280 277 280 284 287 286 289 291 290 287 281 281 284 282 284 281 273 268 268 267 272 273 275 277 278 278 273 278 282 280 282 282 283 283 283 283 282 282 282 281 280 280 280
315 315 315 313 314 312 311 311 311 313 313 308 300 295 286 285 288 287 287 291 293 295 293 295 291 289 288 288 288 291 291 289 288 287 286 286 284 281 283 288 289 288 284 284 283 280 282 281 284 288 289 289 288 289 286 284 284 282 281 282 279 280 278 274 271 268 268 273 274 275 277 276 280 281 283 282 282 282 282 282 282 281 281 280 280 280 280 280
311 309 312 311 312 312 311 311 311 313 311 304 295 289 287 289 286 289 290 298 297 293 293 294 291 288 286 286 287 291 295 290 289 287 286 285 285 285 285 286 288 291 288 284 282 281 281 279 285 288 288 288 287 288 290 287 281 283 284 280 282 283 284 275 274 276 275 272 275 271 279 280 282 282 281 282 281 280 280 280 280 280 280 279 280 280 279 280
306 308 306 307 310 313 312 312 312 312 309 302 294 288 293 292 292 294 299 297 297 296 292 289 290 288 287 286 288 290 292 292 288 285 284 286 286 287 287 289 290 290 293 292 284 284 282 279 284 286 287 289 284 288 287 287 286 285 279 283 284 285 284 279 273 269 268 270 272 273 275 276 279 274 279 279 278 279 279 279 280 280 279 279 280 279 280 280
303 303 305 304 308 313 313 312 313 310 306 299 292 293 294 292 297 297 299 299 297 296 292 291 291 293 288 287 287 288 293 290 287 287 282 286 285 290 288 289 292 291 292 291 288 286 287 281 283 286 287 289 287 289 288 288 288 284 281 284 286 277 277 277 272 269 268 266 268 271 275 277 278 279 277 278 278 279 279 279 279 279 279 279 279 279 280 281
305 304 299 304 311 313 312 313 312 308 302 295 292 292 296 293 297 295 298 299 299 296 292 293 291 293 291 287 288 290 291 287 287 286 285 286 286 291 291 291 290 291 291 290 288 285 286 280 281 285 288 288 286 285 280 283 288 286 287 286 283 281 274 273 278 272 271 266 269 266 273 276 278 279 280 282 281 280 279 278 279 280 280 280 280 280 281 280
302 299 298 308 312 313 313 313 307 304 299 291 294 293 298 294 296 296 296 298 295 295 292 292 294 291 292 292 291 290 289 289 288 288 287 289 289 294 291 293 289 291 290 292 289 289 288 285 277 284 283 286 284 284 282 283 281 284 284 280 283 279 280 279 279 275 275 267 268 270 271 273 276 280 281 282 282 281 280 280 281 281 281 281 281 281 281 281
302 299 299 309 311 313 313 308 301 296 296 295 297 295 295 295 295 295 297 298 296 298 293 289 291 292 291 290 292 292 290 290 290 288 289 289 289 284 291 291 292 291 292 292 290 288 286 285 283 282 283 282 280 283 284 283 285 282 284 282 283 279 278 276 275 279 271 276 270 272 273 275 280 284 282 281 282 281 282 282 281 281 282 282 282 282 283 283
297 291 296 308 311 313 307 297 297 298 295 294 294 297 295 301 295 294 295 297 295 293 296 294 293 292 291 292 289 283 288 288 289 289 290 289 294 291 291 293 293 293 291 288 288 290 288 283 282 282 282 283 285 289 286 287 284 283 285 284 282 280 279 273 274 272 273 275 270 268 273 276 283 281 282 282 283 283 283 282 282 283 283 283 284 284 284 285
293 291 304 306 311 310 303 295 297 296 294 296 300 299 298 296 295 294 295 295 293 296 294 293 293 292 292 293 288 287 290 287 289 289 288 290 291 292 292 291 293 292 291 288 289 288 291 279 280 280 279 280 282 283 284 285 287 286 284 281 282 282 282 280 279 276 275 276 277 275 275 281 284 282 281 282 282 282 283 283 284 285 285 284 285 285 284 284
294 297 299 305 307 307 299 289 289 292 294 296 296 296 298 297 295 293 294 294 294 292 292 292 293 296 293 295 290 288 292 285 290 289 285 288 287 291 287 289 292 289 289 290 288 289 283 282 282 275 273 277 278 282 283 284 281 277 280 280 280 278 278 277 277 278 278 281 281 278 273 280 283 281 281 280 282 282 283 283 284 285 285 284 283 282 282 282
295 297 297 300 305 303 293 296 293 292 293 293 293 292 293 294 295 297 295 293 294 292 291 290 294 293 290 292 290 290 292 291 287 288 287 286 288 288 288 287 290 288 290 289 293 288 284 281 281 277 276 274 273 270 268 273 280 281 280 281 283 282 281 280 277 279 278 282 283 279 279 282 282 282 283 283 282 281 283 284 283 283 283 282 281 280 281 280
290 285 294 295 300 299 297 298 295 292 290 292 291 293 294 292 293 294 297 295 297 295 296 291 292 294 289 289 287 288 289 291 290 286 287 287 285 285 286 286 287 286 290 293 289 286 281 281 280 281 281 280 279 272 278 281 280 276 276 279 280 281 281 283 282 280 278 281 278 279 278 279 281 280 281 282 281 282 283 283 283 283 282 281 280 280 280 280
290 285 289 286 296 295 293 297 294 294 288 294 288 292 290 292 293 293 298 292 296 296 294 294 291 289 287 288 287 287 288 288 288 287 285 285 285 284 285 285 285 288 292 289 288 282 282 282 283 280 281 280 278 279 282 282 279 278 277 279 280 279 276 277 278 275 281 277 274 282 279 276 280 282 281 281 282 282 282 282 282 282 282 282 280 279 282 278
286 288 292 295 290 286 288 290 294 293 293 292 289 291 289 290 291 289 293 295 293 296 293 290 291 293 291 290 288 285 285 285 286 285 284 283 284 285 284 285 284 286 287 285 284 284 281 279 280 281 279 280 280 281 282 282 282 281 281 280 280 282 275 273 271 279 279 277 275 279 277 274 278 281 278 281 283 283 283 283 284 284 281 278 278 279 279 278
289 287 287 290 286 287 292 293 294 293 292 292 288 289 286 288 289 292 290 289 291 290 295 287 289 290 289 290 290 286 286 282 282 283 283 282 282 281 280 283 286 283 283 283 284 280 277 271 276 279 277 280 280 280 280 280 278 278 279 280 280 279 278 278 278 280 280 278 279 279 279 279 281 281 279 281 282 283 282 280 278 279 279 279 278 278 278 278
285 286 283 285 286 285 286 292 293 292 289 293 288 289 288 286 287 289 289 290 286 288 290 289 289 287 289 287 288 287 287 289 287 285 282 283 280 281 281 281 281 283 283 284 285 284 284 276 280 274 273 268 272 277 278 278 278 277 278 279 279 278 277 278 278 278 278 277 279 279 278 278 283 281 281 278 277 278 279 278 279 278 278 278 278 278 278 278
288 287 287 283 282 282 285 289 290 290 288 290 288 290 289 288 287 288 288 290 290 287 288 289 289 284 284 286 286 288 285 285 286 287 285 287 286 284 285 281 284 279 280 279 281 281 281 273 273 267 268 266 269 275 276 273 272 271 273 275 275 275 275 277 276 278 276 275 277 275 273 276 281 276 272 274 276 277 278 278 277 277 278 278 278 278 278 278
287 286 288 285 279 285 284 285 288 288 285 289 290 290 289 289 288 288 286 287 284 287 287 289 288 288 284 284 285 288 287 283 284 283 285 284 285 282 281 282 284 282 276 278 279 277 276 274 272 269 269 265 269 271 273 268 268 270 272 275 276 276 278 278 278 278 279 278 273 271 274 280 280 280 279 277 276 276 275 276 277 276 277 278 278 278 278 277
Wind_Speed
7 7 7 7 7 8 8 8 8 8 8 8 8 9 9 9 9 9 9 9 10 10 10 11 11 12 12 12 12 12 10 2 2 0 1 6 3 4 10 2 11 9 7 3 2 3 1 2 1 4 2 3 2 1 2 1 1 2 1 4 0 3 1 4 3 2 0 1 4 5 0 0 4 3 3 2 2 0 4 5 5 3 5 5 2 2 2 3
7 6 7 7 7 7 7 8 8 8 8 7 8 8 8 8 9 9 9 9 9 10 11 11 12 12 12 12 11 11 6 1 3 3 7 3 9 4 6 5 10 11 7 2 4 2 4 0 0 2 2 1 1 0 1 1 1 2 1 1 5 4 5 5 3 2 0 3 3 3 3 1 4 0 2 1 4 4 6 7 4 6 7 9 7 2 3 4
6 6 6 6 6 6 7 7 7 7 7 7 7 8 8 8 8 9 10 9 10 10 11 12 12 12 12 12 12 9 4 3 1 1 1 5 2 3 4 7 10 11 4 2 3 6 3 3 2 2 2 0 3 1 2 1 1 2 3 2 5 7 4 5 4 6 4 3 4 4 2 1 5 0 0 1 5 5 8 10 10 7 10 4 6 1 1 4
5 5 5 5 5 5 6 6 7 7 7 7 7 8 8 8 8 9 10 11 11 11 11 12 13 12 12 13 11 6 0 2 0 2 1 4 3 1 3 6 9 7 2 5 4 3 2 3 3 3 1 1 3 1 0 2 1 2 2 3 4 3 1 5 3 4 4 2 4 4 2 5 6 3 1 1 6 9 7 7 9 14 15 7 4 4 3 4
4 4 5 5 5 6 6 6 6 6 7 7 7 8 9 9 9 10 10 11 12 11 12 13 13 14 13 13 13 1 3 3 2 1 2 3 1 1 2 4 6 3 2 2 4 3 3 2 3 1 2 1 1 1 3 1 1 3 6 4 4 1 1 8 6 4 2 4 3 4 5 5 2 2 1 1 6 11 7 7 7 11 13 9 7 5 4 5
4 5 5 6 6 7 6 6 6 6 7 8 8 9 9 9 9 10 10 11 12 12 12 12 13 14 14 15 5 1 2 1 1 1 1 3 2 3 4 6 6 3 0 2 1 1 2 2 3 1 0 1 2 3 2 1 1 3 3 3 5 5 4 2 2 4 5 4 5 5 3 3 2 6 2 5 10 9 8 7 8 9 10 10 4 3 4 5
2 6 6 6 6 6 7 7 7 7 7 8 9 9 9 10 10 10 11 11 12 12 12 12 13 13 15 11 0 2 2 5 2 4 3 2 2 5 6 6 7 4 3 1 1 1 1 2 2 2 3 0 3 3 5 0 1 4 6 1 6 3 6 6 5 5 5 4 6 4 3 5 4 11 0 4 13 11 13 7 8 11 11 6 6 6 7 7
1 6 6 6 6 7 7 7 7 8 8 8 9 9 10 10 10 10 10 11 11 11 12 12 11 12 11 3 0 1 2 5 7 1 0 5 6 6 7 4 3 4 3 3 5 2 2 3 4 2 1 4 2 4 1 1 1 4 3 1 4 1 4 4 5 6 7 8 6 3 5 10 3 6 4 14 16 15 13 2 6 8 8 6 4 7 6 7
2 4 6 6 6 7 7 7 7 8 8 9 9 10 10 10 10 10 11 11 11 11 11 10 11 9 7 0 3 2 5 4 3 3 5 6 5 5 2 1 1 4 2 2 0 3 3 3 1 4 3 1 1 1 1 1 5 2 3 0 2 3 5 5 7 7 7 5 2 5 11 11 7 3 5 16 16 15 6 4 4 5 6 7 5 8 7 8
5 1 5 6 6 6 7 7 7 7 8 9 9 10 10 10 10 11 11 10 10 10 10 9 8 7 3 2 3 1 5 1 2 3 5 6 6 5 7 2 4 4 3 0 3 2 2 3 2 3 3 0 2 1 0 3 3 2 1 2 3 7 5 3 4 11 6 5 4 4 11 9 2 2 7 5 12 7 3 6 5 2 6 7 9 9 9 11
4 2 6 6 6 6 7 7 8 8 8 9 10 10 10 11 11 11 11 11 9 9 7 7 3 3 0 1 4 6 3 2 0 3 5 6 7 6 1 2 3 3 2 2 1 2 2 3 2 3 1 2 1 2 0 2 1 1 1 4 5 6 6 6 6 13 3 6 3 7 7 4 3 1 9 11 11 3 5 7 6 6 5 6 8 9 6 9
3 3 6 7 6 7 7 8 9 9 9 10 10 10 10 11 12 11 11 10 7 5 4 3 2 1 0 2 4 6 3 2 1 3 4 5 3 4 4 4 3 3 4 2 0 1 3 2 4 1 2 0 1 1 1 1 0 1 3 6 7 6 7 8 6 4 1 4 3 6 1 7 0 4 12 13 7 5 6 10 6 6 6 8 7 8 10 9
4 4 6 6 7 7 8 9 9 10 10 10 11 11 11 12 12 11 9 6 4 3 3 2 4 2 1 0 8 5 3 3 3 6 2 2 3 2 2 1 3 3 3 4 2 1 1 3 2 1 2 2 1 0 1 1 2 3 1 0 8 4 7 12 0 1 0 4 5 5 3 6 7 11 11 10 6 6 8 7 6 6 8 7 7 8 9 10
5 4 5 5 7 8 9 9 10 10 10 11 12 13 13 13 12 10 6 5 4 2 2 5 3 1 0 4 4 2 4 1 4 4 1 0 3 1 1 3 3 3 2 4 1 1 1 1 3 1 1 1 1 1 2 4 2 2 1 1 3 4 5 6 0 1 5 1 5 3 3 7 9 12 10 9 2 2 7 5 5 7 7 7 7 8 9 9
5 5 5 4 5 7 9 10 9 9 10 11 13 14 14 12 10 6 5 4 3 2 5 4 2 1 1 6 2 4 4 1 3 1 1 3 3 1 0 2 3 4 1 4 1 1 2 2 2 1 1 0 1 1 3 2 3 1 2 4 3 4 7 10 8 3 3 2 3 4 2 8 8 11 12 10 3 1 5 5 7 7 8 7 7 8 7 7
5 5 4 6 7 8 8 7 9 10 12 13 14 14 11 10 6 3 4 1 1 4 1 0 1 2 1 4 0 2 1 1 2 1 1 3 3 1 1 4 1 4 3 2 2 1 4 3 1 3 1 1 2 3 3 5 4 3 2 4 3 2 5 8 5 1 4 2 1 3 5 3 5 6 9 9 5 5 5 5 6 8 8 8 7 6 6 7
6 5 6 5 8 7 8 8 8 10 11 11 12 14 10 6 3 2 2 3 4 3 0 0 0 0 1 1 1 0 3 2 2 1 1 1 2 4 4 3 1 1 4 4 5 3 4 1 2 2 3 2 3 5 1 3 6 4 0 5 4 4 2 3 8 5 2 3 1 1 2 6 8 10 12 13 7 8 7 4 7 7 6 6 6 7 8 9
7 7 8 7 9 11 9 9 9 9 10 11 12 11 5 3 3 2 3 3 1 1 0 1 1 2 8 2 2 3 0 2 0 2 1 1 4 4 3 2 1 4 2 2 4 2 2 1 3 4 1 1 2 2 3 6 5 4 3 3 6 2 4 7 2 3 7 3 3 3 4 7 10 11 11 9 6 4 4 6 7 6 6 5 6 8 8 9
6 6 7 9 11 9 8 9 10 9 10 14 12 6 4 5 3 2 2 0 1 1 1 2 2 4 2 3 1 3 2 2 1 2 1 2 1 3 4 3 4 4 1 2 2 2 2 4 4 2 4 3 6 9 10 11 5 8 7 6 2 4 5 5 5 5 1 4 6 5 9 8 8 10 11 6 4 5 3 8 7 6 6 7 8 8 8 8
6 8 10 11 9 8 10 9 10 8 10 8 6 2 0 1 2 1 1 1 3 5 1 4 6 2 3 2 2 0 1 1 2 2 0 1 3 2 2 2 3 5 4 3 1 2 2 4 6 8 9 10 10 12 13 10 4 2 0 1 6 5 6 4 4 9 1 2 4 5 3 3 8 9 7 8 5 10 5 8 7 6 6 7 8 8 8 9
8 10 11 10 8 9 10 11 9 8 7 4 4 0 1 3 1 3 2 6 6 4 4 4 11 7 4 2 2 5 3 1 2 0 1 0 2 6 2 2 2 0 2 3 5 1 3 4 8 11 11 12 13 9 4 2 1 3 4 4 8 4 9 4 5 2 2 2 3 1 2 7 8 6 7 6 10 11 6 7 8 8 7 7 7 7 7 4
11 11 11 10 10 10 10 9 8 7 6 1 1 1 0 1 0 0 1 4 3 8 8 10 1 5 1 4 4 3 3 0 1 1 1 1 3 6 2 4 3 7 1 3 2 2 3 8 12 15 12 4 2 1 4 5 5 1 4 4 3 8 3 9 6 1 2 0 7 2 3 7 10 3 5 9 9 5 6 5 4 7 7 6 6 6 5 6
10 11 11 10 10 9 9 8 6 7 1 1 1 1 1 0 1 0 2 1 6 2 3 5 4 8 6 2 1 3 5 7 7 4 5 3 2 4 5 4 4 3 2 5 8 4 4 6 15 11 2 4 4 3 3 1 1 3 2 1 8 3 1 6 3 3 4 1 3 2 5 8 3 6 8 5 5 6 6 9 9 7 8 8 7 5 5 6
12 12 10 10 8 8 8 7 6 3 2 3 2 2 0 0 1 0 1 2 4 6 4 4 3 3 6 3 2 6 7 3 3 4 2 5 8 3 3 6 7 3 7 8 10 11 12 8 2 1 5 5 6 6 3 2 5 3 6 6 6 4 5 7 5 3 3 2 1 3 5 7 2 3 3 3 4 6 5 7 7 7 6 5 5 7 7 7
12 11 10 9 7 6 7 5 2 4 2 2 1 1 0 1 2 2 1 3 1 5 1 0 2 1 2 1 1 4 1 0 2 0 2 4 5 3 4 2 3 7 6 6 4 4 9 7 1 3 2 4 4 6 5 4 4 3 6 10 8 6 5 3 1 3 7 4 2 3 5 4 3 2 4 4 2 4 3 6 6 6 6 5 8 7 6 7
13 11 10 8 6 6 3 2 2 1 1 2 1 2 2 3 2 2 2 2 4 4 2 5 2 2 1 0 2 3 4 3 0 1 2 2 1 2 1 1 3 7 6 3 6 4 8 4 4 5 5 3 5 6 4 6 5 0 7 6 8 4 4 2 0 2 1 2 1 3 1 7 7 4 6 3 3 4 3 4 5 5 5 6 6 6 6 6
13 12 11 10 8 5 2 3 1 1 1 2 1 3 2 3 1 1 1 3 3 4 5 1 1 1 1 0 2 2 2 4 0 2 2 2 2 1 2 4 1 1 2 2 3 5 1 3 4 3 4 4 3 6 5 10 7 5 1 4 6 6 4 2 2 2 4 1 4 1 3 5 4 8 4 6 6 4 4 4 4 4 5 5 5 5 6 6
13 12 12 12 10 9 2 0 1 2 2 0 3 3 3 3 3 1 3 3 4 1 2 1 0 1 1 0 4 1 1 2 3 2 0 2 1 2 1 2 5 5 1 3 7 3 3 1 2 4 3 4 7 6 3 8 7 3 3 6 4 3 3 4 1 2 1 1 7 4 1 1 4 8 2 7 4 3 3 3 3 3 3 4 5 5 5 5
14 14 14 13 11 13 4 1 2 3 2 3 4 4 4 3 1 3 3 2 3 2 2 2 3 1 1 1 2 1 0 1 1 1 2 2 3 2 1 4 3 1 1 4 7 2 2 0 3 7 6 7 5 0 5 9 5 2 4 3 5 4 4 2 2 2 1 1 7 6 3 3 7 5 3 0 3 5 6 5 4 3 3 3 3 4 4 4
13 14 14 13 8 6 3 2 5 1 5 4 5 4 4 2 2 2 1 6 1 1 1 1 2 2 2 4 0 0 1 1 1 0 2 2 2 2 0 1 2 0 1 3 2 6 1 4 4 4 5 5 3 1 1 0 2 4 5 2 4 6 3 3 5 3 3 4 8 9 9 7 5 4 7 6 4 2 7 3 3 3 3 3 3 3 3 3
15 14 14 12 6 4 5 4 7 6 5 5 5 5 2 1 3 3 10 3 2 1 1 1 2 3 5 5 4 1 1 0 0 1 1 1 1 2 1 1 4 4 2 3 3 5 3 1 0 2 2 3 4 3 4 2 2 4 1 2 3 3 6 3 3 4 2 7 6 4 8 6 6 5 3 2 6 2 14 13 10 8 5 3 3 2 2 2
17 17 15 11 6 6 8 5 4 8 7 6 5 4 2 4 0 7 3 2 1 2 3 1 0 3 4 0 4 4 4 0 1 2 4 3 4 3 4 7 5 2 3 3 5 3 3 7 2 6 3 6 1 2 2 4 2 5 5 5 3 4 5 2 1 1 5 6 2 2 5 2 9 5 3 5 6 7 0 10 14 12 9 6 4 3 1 1
16 17 17 13 8 6 5 3 6 8 9 6 4 3 2 3 9 5 2 3 2 2 3 4 4 3 4 2 3 2 1 3 1 1 4 0 3 5 3 2 3 2 2 1 3 2 5 2 2 4 3 3 6 6 2 0 1 6 5 5 5 1 1 3 5 1 5 6 3 4 0 3 3 3 4 4 5 6 3 8 7 8 9 7 5 3 2 2
10 10 9 6 7 5 4 8 7 9 9 5 5 4 2 5 4 4 8 4 2 1 3 1 2 2 4 6 3 6 1 2 6 3 2 1 1 2 4 5 3 0 1 2 3 5 1 3 5 6 4 2 7 9 9 5 7 8 3 9 8 8 5 4 3 5 5 6 2 4 1 5 2 2 3 2 3 5 6 7 6 5 5 5 4 3 1 1
8 6 6 4 3 1 7 6 9 9 8 7 4 5 8 8 2 5 3 3 1 0 1 0 4 3 1 1 1 2 3 1 3 3 3 5 5 3 4 4 4 3 1 3 3 2 6 5 4 3 1 4 8 1 6 5 4 2 3 5 5 7 5 4 5 3 2 2 4 1 5 2 2 0 1 2 3 6 5 6 5 5 3 3 3 4 3 2
8 0 1 3 4 4 6 8 7 5 9 7 6 7 12 5 4 2 2 4 1 3 2 2 2 3 2 1 2 3 3 1 1 3 1 4 3 5 3 3 6 11 6 6 4 3 2 3 1 4 3 5 5 4 2 4 4 3 5 5 6 3 4 1 2 0 1 2 8 2 4 1 0 2 1 1 4 3 3 4 4 4 4 3 4 4 3 2
5 5 3 1 0 5 6 6 7 6 5 7 5 10 6 2 4 3 2 2 2 7 3 5 3 6 4 5 3 4 3 2 2 4 4 1 4 5 3 4 4 6 11 9 3 4 5 5 1 3 3 2 1 1 2 2 3 7 2 8 1 2 3 4 4 3 2 4 7 2 6 2 1 7 2 1 3 3 2 4 4 4 3 5 5 4 4 3
4 1 2 1 3 6 5 5 6 4 5 7 11 9 2 5 1 3 0 2 2 1 4 6 3 8 4 4 4 4 2 7 2 3 4 4 3 3 4 2 1 5 9 2 3 2 4 4 4 2 1 2 1 0 2 1 1 3 3 2 3 3 1 2 5 3 2 3 4 5 2 3 8 6 3 6 9 8 5 4 5 5 5 6 4 4 4 2
2 3 1 1 1 7 5 7 4 8 5 8 10 11 3 3 1 3 3 4 1 3 4 3 3 2 3 4 2 1 5 7 5 6 3 3 2 2 3 3 1 2 2 6 2 1 1 3 5 1 2 0 0 4 5 3 1 1 1 1 0 2 2 4 5 4 4 4 1 6 3 9 4 5 12 12 11 9 8 6 7 8 7 7 7 6 6 4
3 3 3 2 0 4 5 6 4 7 7 15 11 6 2 5 3 3 0 3 2 2 3 2 0 1 2 4 4 5 3 5 7 6 4 2 5 2 2 4 3 0 4 1 3 0 3 2 4 1 2 1 2 3 7 8 5 1 1 2 1 0 2 3 1 4 4 3 5 4 7 5 2 3 7 7 10 13 13 12 10 9 9 8 8 7 6 5
1 3 1 2 2 4 7 5 5 10 8 1 1 3 3 3 4 1 2 2 2 3 2 2 4 7 2 2 5 1 1 1 2 5 3 2 4 1 1 3 1 3 1 3 3 1 2 1 6 0 0 5 5 2 4 5 6 6 8 8 8 3 2 4 9 2 1 3 4 3 12 5 4 1 2 3 7 12 13 13 11 10 10 10 9 7 6 6
5 3 1 1 2 6 8 10 6 2 2 6 6 4 3 3 3 3 2 0 4 2 1 2 1 2 1 3 3 2 1 0 2 0 2 6 2 1 1 4 1 0 4 3 4 1 3 2 2 6 6 6 2 2 1 1 3 2 5 3 4 2 5 3 6 5 1 4 3 2 1 7 1 1 1 3 9 12 10 9 10 10 10 9 7 5 5 6
2 2 2 2 2 5 7 6 3 4 5 2 1 2 2 1 3 3 5 1 1 2 2 3 5 4 4 4 0 1 2 1 4 5 1 1 4 2 3 4 3 3 4 1 3 2 6 2 1 4 3 3 3 2 3 4 1 0 1 3 3 3 5 7 4 3 2 1 2 2 4 3 1 1 2 0 1 3 5 9 12 9 6 5 7 7 7 6
2 3 3 0 0 0 8 9 9 10 9 4 0 3 2 2 4 2 4 4 5 3 4 4 0 6 3 4 3 6 9 0 4 5 3 4 3 2 3 3 2 2 3 4 5 4 2 3 6 1 2 5 4 4 5 3 4 1 1 1 1 2 2 1 2 0 1 5 6 4 12 6 1 3 3 2 1 4 6 7 4 5 4 7 6 4 5 5
4 2 2 1 0 3 7 2 3 6 9 10 6 8 5 1 6 7 6 4 2 3 2 3 5 4 4 4 4 3 5 10 2 3 3 2 3 2 4 5 4 3 0 2 2 1 2 3 6 6 10 10 10 6 4 5 6 1 0 0 1 3 4 3 3 3 6 1 8 9 10 1 1 2 0 0 1 3 5 5 4 3 4 5 4 5 6 5
2 3 1 1 3 4 4 1 1 2 4 7 8 7 5 6 1 5 10 6 8 3 5 2 1 5 3 3 3 4 7 4 8 2 4 3 1 2 2 5 3 1 1 4 3 3 2 0 2 6 9 13 9 3 3 2 2 2 2 1 3 1 1 2 1 2 4 2 6 6 6 3 4 3 5 6 5 8 9 8 7 7 7 6 5 6 6 6
1 3 4 4 3 6 8 5 4 3 4 5 5 3 10 11 5 1 9 4 6 8 3 5 3 5 4 5 5 5 5 5 3 1 3 5 1 2 4 2 3 6 6 2 3 4 2 1 4 3 4 3 5 5 4 3 2 2 2 7 6 6 4 5 7 5 3 2 11 10 3 4 10 8 8 7 7 6 7 7 7 7 8 8 7 4 5 5
3 3 3 2 4 7 10 8 11 8 5 4 5 0 4 9 9 7 1 3 2 6 7 1 3 8 8 11 5 4 5 5 5 7 2 0 3 1 1 3 2 4 3 0 1 3 4 4 3 3 4 2 3 3 2 1 3 4 6 8 12 10 4 6 4 9 8 10 15 8 2 4 6 9 4 9 9 10 10 12 12 10 4 2 5 6 7 7
1 1 1 2 2 3 12 11 15 14 13 9 3 3 5 8 11 9 5 1 2 3 11 8 9 10 6 7 9 7 6 4 6 1 4 3 4 3 1 2 2 4 2 2 2 1 4 2 4 1 3 3 2 1 2 4 1 3 7 10 10 7 5 5 10 11 10 8 8 10 9 15 13 10 4 7 10 9 7 3 0 2 5 6 6 7 7 7
4 2 3 3 1 1 1 4 6 13 14 13 9 10 5 5 7 3 0 6 3 5 3 11 7 5 8 6 8 11 11 11 8 9 3 5 2 2 4 5 3 1 2 2 0 2 4 4 6 1 1 3 3 2 3 1 2 7 9 10 9 4 5 10 9 6 5 7 13 14 13 15 13 3 4 2 1 1 1 4 6 4 5 8 8 8 7 7
0 1 1 3 3 3 1 3 7 11 10 10 13 12 2 6 8 5 3 0 7 5 6 14 10 4 2 7 8 10 3 5 6 7 11 13 12 7 7 4 6 5 2 1 0 1 2 4 4 2 2 4 2 1 4 3 3 4 10 14 8 6 11 11 8 6 7 11 9 4 6 11 13 1 0 0 3 5 7 7 4 5 6 7 8 8 8 8
1 1 2 1 1 3 5 3 4 5 12 12 10 11 9 11 4 4 2 0 2 0 1 4 7 9 4 6 12 12 9 7 7 6 7 8 5 5 2 4 8 9 5 5 0 3 3 5 3 2 1 4 4 0 1 3 5 11 17 17 12 12 14 9 7 6 9 4 4 8 12 10 8 5 4 4 6 6 5 5 5 4 5 7 9 9 8 7
Wind_Direction
30 22 19 22 21 17 13 11 11 9 7 8 7 6 4 2 360 357 354 352 349 348 341 340 341 339 338 338 336 337 346 59 356 52 349 237 262 238 182 101 156 148 149 100 72 99 18 13 34 352 18 57 305 48 279 31 60 57 95 115 275 198 147 214 192 176 209 273 288 327 278 94 316 328 290 357 341 354 296 303 269 296 261 232 237 77 134 153
28 13 9 12 14 14 7 2 2 2 1 1 2 359 358 357 355 349 348 347 345 342 339 336 336 335 336 333 333 339 351 55 306 279 239 297 317 207 185 156 150 143 128 84 135 123 109 348 276 48 62 36 308 70 15 260 74 110 126 99 222 188 239 157 201 198 320 262 257 265 300 161 261 148 292 15 290 330 325 290 281 277 279 300 298 356 117 143
24 12 5 1 7 4 1 353 351 352 356 352 354 353 351 349 351 344 342 342 340 339 337 332 332 332 332 331 327 342 351 339 31 355 310 346 312 191 168 156 151 154 142 157 192 143 142 184 177 103 13 70 356 199 37 271 119 229 119 229 248 212 240 228 232 265 181 239 281 299 278 163 267 276 259 278 288 314 283 287 306 287 276 248 275 339 162 176
17 5 358 347 349 360 354 348 343 343 347 347 342 346 344 343 344 343 339 338 337 336 334 333 329 332 332 328 330 332 60 39 303 246 269 318 347 12 178 155 154 152 101 76 160 145 134 87 99 119 74 83 301 36 123 257 95 269 88 188 230 221 197 273 261 239 259 180 298 289 292 324 289 234 33 308 341 285 263 238 232 274 285 285 239 249 195 205
12 359 345 336 345 344 351 341 337 338 338 339 340 339 343 342 340 339 337 334 334 333 333 330 331 330 332 329 330 6 27 53 231 232 269 308 356 35 120 129 136 132 103 139 109 60 100 119 104 50 91 223 349 22 249 250 177 115 209 205 207 110 222 262 263 292 331 301 332 306 334 269 307 343 202 143 254 275 274 264 222 243 267 278 287 257 193 204
344 350 341 336 339 341 334 335 335 334 336 334 339 341 338 337 336 333 333 332 330 330 329 330 329 332 331 326 350 26 63 22 239 257 307 281 42 79 98 109 115 114 155 37 124 66 118 20 86 100 26 87 214 157 268 141 162 248 303 253 230 229 248 259 325 314 5 323 318 310 256 323 343 284 254 226 233 259 249 249 260 251 259 268 277 257 237 224
338 336 336 334 332 331 329 328 330 331 329 335 336 333 332 333 330 331 327 330 326 326 326 326 328 330 333 325 188 73 152 253 327 248 88 79 89 96 99 101 96 91 105 120 47 130 111 97 113 189 102 42 275 189 254 173 200 189 246 260 290 219 232 261 284 287 276 227 270 242 4 308 304 305 216 274 264 250 267 260 260 269 274 286 288 269 256 256
75 321 324 321 327 326 324 327 326 326 331 330 327 329 329 328 328 324 325 320 321 317 321 322 325 326 351 19 32 354 33 250 247 247 206 103 83 94 98 63 94 92 107 168 146 137 129 138 168 145 128 159 221 154 278 330 115 192 248 288 265 299 235 249 254 273 272 270 259 309 299 273 226 257 5 276 276 283 272 280 258 273 290 304 279 292 315 324
219 299 309 314 318 322 317 321 321 323 323 324 322 324 325 324 323 321 316 316 312 312 309 316 316 327 328 37 115 18 267 237 226 156 121 104 101 78 48 121 85 125 138 98 114 166 137 248 162 184 243 190 207 268 323 65 313 190 216 178 283 261 282 275 293 267 257 274 229 326 279 281 272 265 246 251 267 264 298 318 277 299 307 307 352 20 25 34
200 251 298 301 307 313 311 311 315 314 315 317 320 320 320 322 320 318 315 312 307 303 301 306 313 319 21 95 50 121 262 297 52 119 106 114 104 90 44 146 118 113 111 33 96 94 150 210 161 191 133 151 135 224 157 126 227 199 241 238 273 285 318 293 269 287 296 265 241 235 275 277 331 125 287 277 244 264 353 298 305 301 305 337 32 48 41 49
203 297 292 290 303 307 298 308 310 309 310 316 320 320 321 319 319 318 316 311 305 295 296 291 297 6 94 132 133 220 249 60 59 114 115 115 107 111 179 135 150 112 117 68 121 184 223 173 190 100 52 219 130 276 190 232 149 168 240 318 309 323 300 262 267 269 339 299 173 179 248 282 288 132 239 259 269 316 322 302 307 342 1 19 62 59 45 49
200 272 285 290 301 299 296 305 310 309 310 317 318 319 319 321 322 320 319 314 306 301 290 295 264 113 47 94 191 217 345 273 114 134 128 121 114 182 210 194 148 152 157 156 249 254 195 180 128 121 219 50 294 309 331 223 32 282 46 329 293 347 327 283 260 288 122 269 158 157 333 318 108 220 239 248 272 330 315 301 349 22 19 57 70 58 46 37
202 230 268 291 298 296 300 302 307 307 310 314 318 320 323 325 324 324 322 329 325 313 338 354 87 60 110 314 235 246 328 327 114 108 81 67 97 53 68 105 154 157 159 139 168 237 208 146 117 93 206 114 182 228 209 43 292 338 22 240 322 350 321 283 275 296 117 248 131 142 292 269 266 239 259 275 296 325 319 312 19 33 57 62 63 59 52 36
218 224 258 274 291 293 295 302 306 307 311 315 321 324 324 324 325 324 327 322 326 306 49 105 83 78 93 246 267 265 298 327 102 92 135 46 123 307 15 12 76 76 61 108 176 177 125 125 124 150 120 137 278 278 28 331 15 238 258 61 257 348 268 283 101 286 330 219 154 146 199 277 278 283 271 271 308 299 293 7 22 58 66 69 57 57 54 43
236 248 244 252 275 290 297 300 304 309 316 322 323 322 321 320 320 316 330 351 36 147 164 94 55 90 96 265 253 292 274 111 116 244 233 127 140 20 306 22 48 33 79 121 138 179 140 89 71 50 244 279 39 43 349 3 344 349 33 300 330 173 278 298 298 202 193 319 119 108 300 243 267 284 288 286 325 39 294 34 44 60 64 56 55 51 49 44
247 243 259 274 280 287 291 284 276 296 316 319 321 320 315 310 313 309 2 341 184 131 90 59 1 92 80 292 225 325 49 140 228 207 294 137 136 153 163 111 92 20 39 358 33 40 35 88 87 196 313 358 73 91 25 22 335 340 172 266 281 189 258 346 293 152 238 205 24 145 237 326 302 261 291 295 333 353 349 39 57 64 59 56 49 51 45 36
213 252 273 287 282 269 269 271 280 291 304 306 316 320 312 280 240 286 0 57 72 91 56 89 56 117 189 255 83 309 227 235 296 53 36 45 144 152 103 65 52 76 44 37 18 61 347 65 300 38 30 140 144 102 54 355 301 295 323 220 214 221 261 244 301 328 49 72 250 307 223 244 269 293 294 302 330 348 334 54 82 78 71 63 61 54 47 40
214 238 242 255 263 267 270 280 287 297 305 316 329 321 334 71 114 43 60 46 42 107 136 181 164 353 280 56 234 229 80 123 137 194 106 276 117 99 97 100 48 86 56 37 355 97 307 86 36 194 5 25 120 94 150 236 212 242 279 267 293 267 232 245 305 264 359 345 326 305 274 268 273 287 288 287 337 330 351 91 104 91 80 65 62 57 47 44
213 248 263 257 257 262 274 281 295 306 308 326 332 322 62 89 56 95 68 41 92 359 25 233 123 161 218 249 287 26 60 263 73 78 188 112 29 107 72 88 90 112 114 85 263 107 358 61 22 49 230 156 207 184 196 224 202 232 233 240 217 273 277 256 245 277 337 306 312 292 274 294 297 291 296 342 342 338 21 105 96 88 80 70 62 55 47 45
211 235 241 249 260 271 272 280 293 303 318 328 350 341 2 14 7 342 5 30 229 192 176 197 206 274 321 289 185 241 271 25 127 325 326 317 108 96 32 88 36 60 110 186 223 234 119 127 172 207 216 208 213 204 209 227 215 251 23 196 260 258 274 277 279 260 65 336 249 261 282 268 282 282 313 339 15 27 24 93 83 74 71 67 63 56 53 48
221 231 238 249 259 264 277 286 291 301 313 333 321 347 224 182 114 280 270 246 229 252 234 232 201 204 228 128 130 146 129 266 49 334 214 129 105 114 236 76 41 143 257 174 144 271 81 173 233 223 213 208 216 220 228 294 255 226 260 283 278 245 263 243 245 300 318 152 287 309 337 294 285 306 2 360 45 28 32 78 81 82 71 65 63 59 49 40
218 225 240 248 255 262 272 278 289 295 312 337 166 214 234 192 176 231 105 304 314 243 233 247 151 269 284 159 208 170 85 75 282 262 287 130 164 153 263 125 154 197 187 106 48 96 162 197 230 227 222 229 284 146 171 195 231 153 203 230 286 266 256 277 272 317 258 41 265 306 323 282 281 21 29 52 59 51 35 56 70 85 77 66 57 59 46 43
221 229 237 242 248 257 267 278 283 295 355 92 232 104 206 231 352 308 97 127 265 257 207 231 222 232 263 337 268 157 194 209 226 213 203 141 87 219 149 151 181 187 138 176 161 157 220 277 245 244 131 203 268 217 174 155 124 204 229 162 236 232 332 299 287 348 337 76 272 322 303 275 280 78 67 33 69 74 60 61 62 57 74 67 54 44 50 44
218 223 233 240 246 252 269 274 282 314 200 180 145 177 306 111 121 81 74 230 285 302 207 222 187 180 218 184 219 149 188 245 143 236 229 136 160 184 132 174 185 177 209 191 187 181 208 225 238 143 159 164 223 253 193 163 248 241 210 229 245 245 224 185 253 307 287 352 54 357 327 313 285 138 79 90 86 79 60 72 63 54 61 71 73 60 42 44
218 219 225 235 235 246 257 299 328 233 167 102 274 250 198 125 96 156 87 323 349 282 236 336 147 238 203 45 8 168 252 28 222 241 185 155 153 96 226 174 111 216 213 196 199 242 273 261 96 104 117 169 195 270 249 153 242 304 233 207 222 221 248 265 354 30 14 328 331 54 348 308 293 290 165 164 74 63 51 70 56 54 47 47 52 44 32 37
212 217 229 228 227 233 244 17 264 196 120 196 210 163 150 92 96 99 97 70 286 264 10 229 119 243 92 153 23 158 73 237 158 226 112 212 163 153 81 185 151 224 217 143 186 202 222 230 151 196 157 150 177 212 240 151 205 19 271 196 210 194 184 128 75 66 312 186 282 58 66 268 320 322 179 176 107 90 46 58 64 47 50 47 48 42 35 28
207 205 214 225 215 188 132 219 227 101 95 276 184 129 151 107 112 75 34 323 323 215 159 281 73 245 1 233 137 120 131 255 20 26 48 320 150 305 141 238 25 342 154 150 44 263 186 278 195 203 196 178 190 266 233 161 141 226 246 124 118 124 143 184 106 159 230 267 301 356 160 242 303 278 206 173 126 117 86 65 57 57 53 50 52 45 41 33
206 205 206 209 209 178 204 127 49 162 202 169 127 115 90 115 87 56 81 324 277 358 109 243 208 327 92 303 63 145 210 139 96 229 105 294 111 358 104 221 172 188 162 86 194 260 155 208 167 174 173 182 215 213 176 159 145 218 194 130 136 152 179 140 124 178 211 34 283 317 352 289 254 260 17 162 146 181 132 134 101 80 58 58 52 43 41 37
204 203 203 204 199 202 203 212 146 221 204 154 125 102 97 83 87 95 122 145 241 82 304 67 275 42 12 20 55 78 221 3 151 229 306 54 36 140 184 218 159 199 283 163 203 284 318 178 220 157 144 209 221 262 169 162 188 262 163 94 66 65 70 121 109 100 328 72 263 224 187 226 273 268 318 3 254 210 180 166 143 107 88 67 55 47 44 32
205 204 202 198 190 210 212 112 219 203 131 133 109 101 78 88 84 115 183 228 42 265 127 194 131 209 80 119 323 24 145 325 88 56 32 153 316 34 346 148 135 89 227 357 262 214 269 296 159 120 197 211 135 71 142 244 150 120 84 61 1 35 34 30 69 91 50 269 250 213 200 176 288 260 209 158 220 184 135 127 125 110 94 73 62 60 47 44
205 206 204 181 187 187 139 210 216 139 139 109 108 93 91 67 156 161 223 214 50 209 51 140 186 66 127 142 172 268 105 89 25 83 89 12 20 42 40 47 39 54 35 0 298 325 342 349 160 256 84 87 107 83 17 50 87 114 97 114 33 333 8 31 345 40 132 269 263 237 188 169 187 290 328 306 334 235 166 165 164 150 139 125 97 71 53 41
206 207 196 184 189 142 181 215 157 140 135 134 122 102 132 194 318 198 223 79 285 218 152 200 85 147 181 334 100 164 170 354 211 138 151 175 155 153 212 158 165 90 321 218 252 16 276 235 240 325 228 143 99 89 328 23 23 84 88 53 105 260 31 318 20 286 210 221 267 101 129 45 250 224 286 327 342 328 231 160 157 149 145 137 133 135 112 62
206 207 196 196 173 199 217 116 130 142 131 137 105 101 166 167 228 143 293 165 249 132 251 112 189 154 162 109 229 194 128 167 227 200 115 59 133 245 263 177 202 144 206 245 201 16 275 288 320 268 338 200 130 147 223 88 234 115 149 139 93 220 203 255 266 225 303 293 274 129 73 281 248 295 21 324 329 327 81 109 118 132 135 140 148 151 128 88
174 180 192 189 191 200 130 140 144 141 129 126 104 89 88 228 238 166 199 201 191 340 83 104 73 59 134 170 235 151 205 250 147 213 142 151 103 243 284 249 156 280 91 125 175 198 253 337 269 147 228 190 166 195 180 167 161 206 123 151 183 145 153 229 202 212 221 221 279 272 64 228 139 225 335 355 355 38 57 87 98 103 123 138 144 141 135 117
147 160 157 144 133 125 141 152 155 162 135 133 121 169 195 215 137 174 234 254 270 22 79 339 128 104 235 317 287 233 160 225 164 119 171 131 223 183 193 232 215 123 141 110 259 78 207 218 257 225 256 156 178 192 120 101 66 167 160 79 93 233 131 186 206 155 243 318 327 203 197 205 154 329 304 35 50 58 64 86 104 110 122 129 129 147 156 150
103 153 142 171 164 162 162 155 158 156 146 139 146 198 214 167 190 146 217 172 146 150 163 51 82 160 237 300 313 200 296 172 237 117 272 192 209 188 222 211 177 182 156 173 197 192 52 284 281 333 73 160 200 155 216 137 212 213 105 191 210 165 126 54 351 40 92 42 255 155 307 303 217 221 83 50 77 65 78 87 116 142 157 157 164 172 183 167
125 130 133 239 228 158 166 162 152 144 139 151 175 230 190 258 181 173 254 159 203 133 121 155 231 160 206 223 206 195 241 78 240 132 245 186 288 204 230 252 160 187 198 155 273 190 154 237 295 128 236 261 219 162 103 31 150 102 176 236 170 126 114 124 211 321 70 202 265 70 210 289 116 286 132 149 125 176 135 168 168 180 183 174 194 186 188 169
106 59 75 143 200 160 159 161 141 135 141 168 212 221 145 205 269 182 203 115 76 35 136 180 272 169 238 184 242 184 210 168 221 132 225 196 245 181 158 185 164 182 219 300 165 276 118 288 283 237 166 291 4 178 355 21 51 145 192 213 117 261 247 318 88 254 256 260 265 287 246 236 189 226 129 233 191 195 183 197 186 197 210 203 202 214 210 186
97 112 181 273 160 155 159 152 158 146 161 196 221 221 184 216 229 188 193 137 87 110 180 234 175 222 142 190 216 195 160 191 178 189 145 229 187 205 176 165 194 164 355 158 187 231 49 173 290 318 160 307 31 86 215 247 345 54 58 44 238 111 184 142 204 192 130 256 286 290 319 258 205 210 186 207 189 165 171 187 206 200 202 198 201 199 192 186
93 89 257 49 158 138 128 140 157 180 187 212 208 213 155 177 209 249 278 164 244 148 234 177 244 237 190 206 154 180 229 187 171 218 163 258 188 319 154 4 159 33 56 187 163 113 203 122 236 274 305 42 182 185 212 165 168 86 169 259 306 346 228 100 352 141 189 188 212 254 283 276 268 197 176 202 167 172 174 185 193 199 206 209 204 193 190 181
103 105 230 73 120 148 138 150 187 204 212 356 131 177 144 192 181 244 83 76 142 9 148 154 176 200 181 121 246 152 166 133 174 188 201 295 167 258 236 156 249 146 48 51 123 195 130 191 217 358 112 196 238 243 183 165 171 163 171 209 179 137 233 249 262 50 123 182 234 227 260 283 262 162 205 193 175 169 191 176 181 198 205 204 207 204 187 174
124 141 216 71 194 169 155 197 207 193 218 212 213 144 191 117 119 183 111 322 115 143 33 119 209 153 184 211 157 93 157 214 236 198 253 193 295 95 342 353 206 19 129 181 183 261 154 132 106 219 191 197 215 38 305 203 121 169 136 236 158 138 111 133 236 257 25 248 111 175 253 260 269 272 291 192 171 184 180 171 179 197 204 204 201 190 183 180
134 148 34 316 310 184 163 228 256 234 233 225 104 319 102 38 161 192 155 177 145 143 143 171 192 161 249 203 350 69 150 239 187 215 195 237 256 185 299 343 326 49 81 2 41 245 79 95 208 278 315 317 329 304 21 43 93 351 347 73 118 186 180 184 210 190 195 254 266 305 253 256 339 350 303 259 182 172 168 181 184 199 198 184 199 182 175 169
112 125 128 169 69 96 196 196 204 211 230 275 295 248 59 179 149 179 190 195 169 175 172 191 262 206 223 176 134 182 177 102 233 198 274 206 237 91 350 10 297 184 123 223 142 242 126 268 141 230 347 330 346 350 1 341 51 122 200 286 155 105 83 157 89 66 181 206 239 224 252 241 336 12 356 88 78 174 197 219 216 202 192 205 200 182 178 179
125 63 82 103 159 243 214 238 211 200 208 215 205 228 227 205 205 189 172 209 177 162 123 233 191 155 215 162 180 145 188 189 270 232 154 166 213 356 332 44 324 168 195 300 184 52 155 193 129 188 224 236 246 214 245 255 225 222 176 319 284 135 143 106 234 181 235 199 211 232 251 310 329 336 328 353 9 252 246 234 258 216 210 215 214 198 190 178
195 153 170 47 173 246 276 85 35 237 216 202 224 230 218 233 272 200 178 220 187 199 202 178 192 167 175 142 187 203 219 223 197 209 159 213 274 325 265 339 56 149 184 80 34 66 166 103 173 196 204 236 230 193 246 116 106 173 260 161 230 195 218 147 143 230 216 299 270 239 210 262 264 203 226 221 213 215 226 238 236 243 233 216 204 195 188 186
40 126 154 172 114 233 239 211 213 182 216 181 217 176 220 217 212 289 187 222 198 197 223 207 188 162 236 162 196 219 201 211 221 187 195 155 259 238 307 45 6 31 4 40 10 79 78 219 239 183 243 238 153 182 197 142 169 228 228 263 235 206 190 176 192 212 179 179 258 248 205 186 250 242 204 216 225 235 242 242 249 250 242 216 196 182 182 185
132 255 136 210 147 196 208 228 216 214 228 201 231 121 223 200 198 214 181 224 148 186 190 313 186 215 183 182 157 204 188 207 174 209 81 337 79 334 39 357 60 323 15 26 3 124 144 206 281 117 268 186 171 167 149 126 207 211 233 242 258 257 161 182 204 215 193 215 255 269 224 203 253 252 179 197 211 221 225 229 226 228 233 142 146 164 177 183
110 335 218 330 180 253 208 200 194 203 210 193 250 215 233 198 207 202 170 152 171 231 199 223 213 204 192 181 174 218 175 187 236 212 173 169 179 133 145 349 292 13 65 32 21 142 87 270 210 144 229 300 287 223 230 176 227 250 237 241 239 240 233 197 228 227 208 236 251 259 265 262 254 263 236 221 213 216 233 237 111 180 199 173 165 176 177 183
200 140 255 358 52 316 320 182 186 203 218 198 211 218 210 182 212 185 222 167 212 230 174 225 215 189 198 202 197 212 205 203 169 199 216 135 216 169 199 182 152 21 52 141 97 310 109 267 105 337 75 290 308 307 271 212 206 255 264 257 249 250 245 230 236 247 231 257 252 254 265 271 271 237 208 264 209 207 339 240 227 209 170 173 176 178 181 189
335 69 122 111 194 220 117 181 182 197 213 207 223 221 172 204 231 176 216 234 210 202 183 210 200 178 242 208 222 232 212 186 197 201 184 169 192 204 146 258 139 151 128 122 162 291 71 243 56 62 85 300 320 237 269 39 3 276 275 268 255 251 262 253 235 211 201 226 238 260 264 257 266 234 30 290 145 173 200 213 204 201 191 171 170 182 188 197
69 314 87 93 185 240 176 199 177 156 222 215 211 209 211 214 198 135 258 164 74 93 207 201 189 168 200 190 218 217 200 164 151 119 87 29 54 72 91 152 147 150 172 161 250 141 164 135 125 112 136 258 278 224 272 38 11 312 261 252 244 235 239 260 262 220 217 195 190 215 235 244 249 271 288 249 194 221 213 200 209 214 196 177 179 188 195 202